Rutland, VT

1:09 PM EST on November 20, 2017 (GMT -0500)
Rutland State

Weather History for KRUT - November, 2014

Change the Weather History Date:

Friday, November 7, 2014

  Actual Average Record
Temperature  
Mean Temperature 37 °F -  
Max Temperature 39 °F - 73 °F (1975)
Min Temperature 34 °F - 19 °F (1962)
Degree Days  
Heating Degree Days 28    
Month to date heating degree days 173  
Since 1 July heating degree days 868  
Cooling Degree Days 0    
Month to date cooling degree days 0  
Year to date cooling degree days 280  
Moisture  
Dew Point 32 °F    
Average Humidity 85    
Maximum Humidity 100    
Minimum Humidity 69    
Precipitation  
Precipitation 0.00 in - 0.91 in (1948)
Month to date precipitation 0.00  
Year to date precipitation 23.02  
Sea Level Pressure  
Sea Level Pressure 29.65 in    
Wind  
Wind Speed 10 mph (NW)    
Max Wind Speed 14 mph    
Max Gust Speed 23 mph    
Visibility 9 miles    
Events      
T = Trace of Precipitation, MM = Missing Value Source: NWS Daily Summary

Daily Weather History Graph

Daily Weather History Graph

Search for Another Location

Airport or City:

Trip Planner

Search our weather history database for the weather conditions in past years. The results will help you decide how hot, cold, wet, or windy it might be!

Date:

Astronomy

Nov. 07, 2014 Rise Set
Actual Time 6:35 AM EST 4:35 PM EST
Civil Twilight 6:04 AM EST 5:05 PM EST
Nautical Twilight 5:30 AM EST 5:39 PM EST
Astronomical Twilight 4:57 AM EST 6:13 PM EST
Moon 5:25 PM EST (11/7) 7:08 AM EST (11/7)
Length of Visible Light 11h 00m
Length of Day
10h 00m
Full, 99% of the Moon is Illuminated
Nov 7
Full
Nov 14
Last Quarter
Nov 22
New
Nov 29
First Quarter
Dec 6
Full

Hourly Weather History & Observations

Time (EST) Temp. Windchill Dew Point Humidity Pressure Visibility Wind Dir Wind Speed Gust Speed Precip Events Conditions
12:15 AM 39.2 °F 35.0 °F 37.4 °F 93% 29.57 in 7.0 mi NW 5.8 mph - N/A   Overcast
12:35 AM 37.4 °F 33.8 °F 37.4 °F 100% 29.58 in 10.0 mi NW 4.6 mph - N/A   Overcast
12:55 AM 37.4 °F 31.4 °F 35.6 °F 93% 29.58 in 10.0 mi WNW 8.1 mph - N/A   Overcast
1:15 AM 37.4 °F 32.8 °F 37.4 °F 100% 29.58 in 6.0 mi NW 5.8 mph - N/A   Overcast
1:35 AM 37.4 °F 32.8 °F 37.4 °F 100% 29.58 in 4.0 mi NNW 5.8 mph - N/A   Overcast
1:55 AM 37.4 °F 31.4 °F 37.4 °F 100% 29.58 in 4.0 mi North 8.1 mph - N/A   Overcast
2:15 AM 37.4 °F 32.1 °F 35.6 °F 93% 29.57 in 5.0 mi North 6.9 mph - N/A   Overcast
2:35 AM 37.4 °F 30.8 °F 35.6 °F 93% 29.56 in 5.0 mi NW 9.2 mph - N/A   Overcast
2:55 AM 37.4 °F 30.8 °F 35.6 °F 93% 29.57 in 5.0 mi NW 9.2 mph - N/A   Overcast
3:15 AM 37.4 °F 30.3 °F 35.6 °F 93% 29.57 in 10.0 mi NW 10.4 mph - N/A   Overcast
3:35 AM 35.6 °F 28.0 °F 35.6 °F 100% 29.57 in 10.0 mi NW 10.4 mph 17.3 mph N/A   Overcast
3:55 AM 35.6 °F 28.6 °F 33.8 °F 93% 29.57 in 10.0 mi NW 9.2 mph 19.6 mph N/A   Overcast
4:15 AM 35.6 °F 28.6 °F 33.8 °F 93% 29.58 in 10.0 mi WNW 9.2 mph - N/A   Overcast
4:35 AM 35.6 °F 28.0 °F 33.8 °F 93% 29.57 in 10.0 mi NW 10.4 mph - N/A   Overcast
4:55 AM 35.6 °F 29.9 °F 33.8 °F 93% 29.57 in 10.0 mi NW 6.9 mph - N/A   Overcast
5:15 AM 35.6 °F 30.7 °F 33.8 °F 93% 29.57 in 10.0 mi NW 5.8 mph - N/A   Overcast
5:35 AM 35.6 °F 29.2 °F 33.8 °F 93% 29.57 in 10.0 mi NW 8.1 mph - N/A   Overcast
5:55 AM 35.6 °F 27.1 °F 33.8 °F 93% 29.57 in 10.0 mi NW 12.7 mph 16.1 mph N/A   Overcast
6:15 AM 35.6 °F 27.1 °F 33.8 °F 93% 29.56 in 10.0 mi NW 12.7 mph 16.1 mph N/A   Overcast
6:35 AM 35.6 °F 29.2 °F 33.8 °F 93% 29.56 in 10.0 mi NW 8.1 mph 16.1 mph N/A   Overcast
6:55 AM 35.6 °F 28.6 °F 33.8 °F 93% 29.57 in 10.0 mi NW 9.2 mph - N/A   Overcast
7:15 AM 35.6 °F 28.0 °F 33.8 °F 93% 29.57 in 10.0 mi NW 10.4 mph - N/A   Overcast
7:35 AM 35.6 °F 29.9 °F 33.8 °F 93% 29.57 in 5.0 mi NW 6.9 mph - N/A   Overcast
7:55 AM 35.6 °F 27.5 °F 33.8 °F 93% 29.57 in 6.0 mi NW 11.5 mph 16.1 mph N/A   Overcast
8:15 AM 35.6 °F 28.0 °F 33.8 °F 93% 29.58 in 5.0 mi NW 10.4 mph - N/A   Overcast
8:35 AM 35.6 °F 29.9 °F 33.8 °F 93% 29.58 in 5.0 mi NW 6.9 mph 16.1 mph N/A   Overcast
8:55 AM 35.6 °F 28.0 °F 33.8 °F 93% 29.58 in 8.0 mi NW 10.4 mph - N/A   Overcast
9:15 AM 35.6 °F 28.6 °F 33.8 °F 93% 29.59 in 8.0 mi NNW 9.2 mph - N/A   Overcast
9:35 AM 35.6 °F 29.9 °F 33.8 °F 93% 29.59 in 5.0 mi North 6.9 mph - N/A   Overcast
9:55 AM 35.6 °F 29.2 °F 33.8 °F 93% 29.59 in 5.0 mi NNW 8.1 mph - N/A   Overcast
10:15 AM 35.6 °F 29.2 °F 33.8 °F 93% 29.60 in 10.0 mi NW 8.1 mph - N/A   Overcast
10:35 AM 35.6 °F 26.6 °F 33.8 °F 93% 29.60 in 10.0 mi NW 13.8 mph 21.9 mph N/A   Overcast
10:55 AM 35.6 °F 27.5 °F 33.8 °F 93% 29.60 in 10.0 mi NW 11.5 mph 20.7 mph N/A   Overcast
11:15 AM 35.6 °F 25.5 °F 32.0 °F 87% 29.60 in 10.0 mi NW 17.3 mph 20.7 mph N/A   Mostly Cloudy
11:35 AM 35.6 °F 28.0 °F 32.0 °F 87% 29.60 in 10.0 mi NW 10.4 mph 20.7 mph N/A   Overcast
11:55 AM 35.6 °F 28.0 °F 32.0 °F 87% 29.60 in 10.0 mi NW 10.4 mph 23.0 mph N/A   Overcast
12:15 PM 35.6 °F 27.5 °F 32.0 °F 87% 29.60 in 10.0 mi NNW 11.5 mph 20.7 mph N/A   Overcast
12:35 PM 35.6 °F 28.0 °F 33.8 °F 93% 29.60 in 10.0 mi NW 10.4 mph 16.1 mph N/A   Overcast
12:55 PM 35.6 °F 27.5 °F 33.8 °F 93% 29.60 in 10.0 mi NW 11.5 mph 19.6 mph N/A   Overcast
1:15 PM 35.6 °F 26.6 °F 32.0 °F 87% 29.61 in 10.0 mi NW 13.8 mph 19.6 mph N/A   Overcast
1:35 PM 35.6 °F 25.9 °F 32.0 °F 87% 29.61 in 10.0 mi NW 16.1 mph 23.0 mph N/A   Overcast
1:55 PM 35.6 °F 28.6 °F 30.2 °F 81% 29.62 in 10.0 mi NW 9.2 mph 19.6 mph N/A   Overcast
2:15 PM 35.6 °F 27.5 °F 32.0 °F 87% 29.63 in 10.0 mi NW 11.5 mph 18.4 mph N/A   Overcast
2:35 PM 35.6 °F 26.6 °F 30.2 °F 81% 29.64 in 10.0 mi NW 13.8 mph 19.6 mph N/A   Overcast
2:55 PM 35.6 °F 26.6 °F 30.2 °F 81% 29.65 in 10.0 mi NW 13.8 mph 21.9 mph N/A   Overcast
3:15 PM 33.8 °F 25.3 °F 30.2 °F 87% 29.66 in 10.0 mi NW 11.5 mph 20.7 mph N/A   Overcast
3:35 PM 33.8 °F 24.3 °F 30.2 °F 87% 29.66 in 10.0 mi NW 13.8 mph 23.0 mph N/A   Overcast
3:55 PM 33.8 °F 26.4 °F 30.2 °F 87% 29.67 in 6.0 mi NW 9.2 mph 17.3 mph N/A   Overcast
4:15 PM 33.8 °F 25.8 °F 32.0 °F 93% 29.68 in 10.0 mi NW 10.4 mph - N/A   Overcast
4:35 PM 33.8 °F 26.4 °F 30.2 °F 87% 29.69 in 10.0 mi NNW 9.2 mph 18.4 mph N/A   Overcast
4:55 PM 33.8 °F 25.8 °F 30.2 °F 87% 29.70 in 10.0 mi NNW 10.4 mph 18.4 mph N/A   Overcast
5:15 PM 33.8 °F 26.4 °F 30.2 °F 87% 29.71 in 10.0 mi NW 9.2 mph - N/A   Overcast
5:35 PM 33.8 °F 27.7 °F 30.2 °F 87% 29.71 in 10.0 mi NNW 6.9 mph - N/A   Overcast
5:55 PM 33.8 °F 26.4 °F 30.2 °F 87% 29.72 in 10.0 mi NW 9.2 mph - N/A   Overcast
6:15 PM 33.8 °F 26.4 °F 30.2 °F 87% 29.73 in 10.0 mi NNW 9.2 mph - N/A   Overcast
6:35 PM 33.8 °F 25.8 °F 30.2 °F 87% 29.74 in 10.0 mi NNW 10.4 mph 18.4 mph N/A   Overcast
6:55 PM 33.8 °F 24.3 °F 28.4 °F 81% 29.74 in 10.0 mi NW 13.8 mph 20.7 mph N/A   Overcast
7:15 PM 33.8 °F 25.8 °F 28.4 °F 81% 29.75 in 10.0 mi NW 10.4 mph 18.4 mph N/A   Overcast
7:35 PM 33.8 °F 25.8 °F 28.4 °F 81% 29.76 in 10.0 mi NW 10.4 mph 17.3 mph N/A   Overcast
7:55 PM 33.8 °F 25.8 °F 28.4 °F 81% 29.77 in 10.0 mi NW 10.4 mph 19.6 mph N/A   Overcast
8:15 PM 33.8 °F 25.3 °F 28.4 °F 81% 29.77 in 10.0 mi NW 11.5 mph 16.1 mph N/A   Overcast
8:35 PM 33.8 °F 25.3 °F 26.6 °F 75% 29.78 in 10.0 mi NW 11.5 mph 18.4 mph N/A   Overcast
8:55 PM 33.8 °F 27.0 °F 26.6 °F 75% 29.79 in 10.0 mi NW 8.1 mph - N/A   Overcast
9:15 PM 33.8 °F 27.0 °F 26.6 °F 75% 29.78 in 10.0 mi NW 8.1 mph - N/A   Overcast
9:35 PM 33.8 °F 27.0 °F 24.8 °F 70% 29.79 in 10.0 mi NW 8.1 mph - N/A   Overcast
9:55 PM 33.8 °F 25.3 °F 24.8 °F 70% 29.79 in 10.0 mi NW 11.5 mph - N/A   Overcast
10:15 PM 33.8 °F 26.4 °F 23.0 °F 65% 29.80 in 10.0 mi NW 9.2 mph 16.1 mph N/A   Overcast
10:35 PM 33.8 °F 27.0 °F 24.8 °F 70% 29.80 in 10.0 mi NW 8.1 mph - N/A   Overcast
10:55 PM 33.8 °F 27.0 °F 24.8 °F 70% 29.81 in 10.0 mi NW 8.1 mph - N/A   Overcast
11:15 PM 33.8 °F 27.7 °F 24.8 °F 70% 29.81 in 10.0 mi WNW 6.9 mph - N/A   Overcast
11:35 PM 33.8 °F 25.8 °F 24.8 °F 70% 29.82 in 10.0 mi WNW 10.4 mph - N/A   Overcast
11:55 PM 33.8 °F 27.0 °F 23.0 °F 65% 29.82 in 10.0 mi WNW 8.1 mph - N/A   Overcast